Change the Weather History Date:

Sunday, February 12, 2012

  Actual Average Record
Temperature  
Mean Temperature 10 °F 20 °F  
Max Temperature 17 °F 31 °F 55 °F (1981)
Min Temperature 2 °F 9 °F -17 °F (1967)
Degree Days  
Heating Degree Days 55 45  
Month to date heating degree days 505 555  
Since 1 July heating degree days 4214 4962  
Cooling Degree Days 0 0  
Month to date cooling degree days 0 0  
Year to date cooling degree days 0 0  
Moisture  
Dew Point -5 °F    
Average Humidity 55    
Maximum Humidity 69    
Minimum Humidity 40    
Precipitation  
Precipitation 0.00 in 0.09 in 0.90 in (1952)
Month to date precipitation 0.13 1.05  
Year to date precipitation 2.08 3.94  
Snow  
Snow 0.00 in 0.50 in 14.00 in (1944)
Month to date snowfall 0.4 6.4  
Since 1 July snowfall 34.7 42.4  
Snow Depth 1.00 in    
Sea Level Pressure  
Sea Level Pressure 29.61 in    
Wind  
Wind Speed 15 mph (NW)    
Max Wind Speed 29 mph    
Max Gust Speed 37 mph    
Visibility 10 miles    
Events      
T = Trace of Precipitation, MM = Missing Value Source: NWS Daily Summary

Daily Weather History Graph

Daily Weather History Graph

Search for Another Location

Airport or City:

Trip Planner

Search our weather history database for the weather conditions in past years. The results will help you decide how hot, cold, wet, or windy it might be!

Date:

Astronomy

Feb. 12, 2012 Rise Set
Actual Time 6:41 AM EST 4:58 PM EST
Civil Twilight 6:10 AM EST 5:28 PM EST
Nautical Twilight 5:36 AM EST 6:03 PM EST
Astronomical Twilight 5:02 AM EST 6:37 PM EST
Moon 11:11 PM EST (2/12) 8:40 AM EST (2/12)
Length of Visible Light 11h 18m
Length of Day
10h 17m
Waning Gibbous, 72% of the Moon is Illuminated
Feb 12
Waning Gibbous
Feb 14
Last Quarter
Feb 21
New
Feb 29
First Quarter
Mar 8
Full

Hourly Weather History & Observations

Time (EST) Temp. Windchill Dew Point Humidity Pressure Visibility Wind Dir Wind Speed Gust Speed Precip Events Conditions
12:53 AM 16.0 °F 0.6 °F 6.1 °F 65% 29.52 in 10.0 mi NNW 16.1 mph - N/A   Scattered Clouds
1:53 AM 14.0 °F -3.0 °F 1.9 °F 59% 29.52 in 10.0 mi NNW 18.4 mph - N/A   Partly Cloudy
2:53 AM 10.9 °F -4.7 °F -4.0 °F 51% 29.52 in 10.0 mi WNW 13.8 mph - N/A   Clear
3:53 AM 8.1 °F -9.0 °F -5.1 °F 55% 29.55 in 10.0 mi NW 15.0 mph 23.0 mph N/A   Clear
4:53 AM 7.0 °F -8.3 °F -5.1 °F 58% 29.55 in 10.0 mi NW 11.5 mph - N/A   Clear
5:53 AM 6.1 °F -12.2 °F -4.0 °F 63% 29.56 in 10.0 mi NW 16.1 mph - N/A   Partly Cloudy
6:53 AM 7.0 °F -11.0 °F -2.9 °F 64% 29.57 in 10.0 mi NW 16.1 mph 25.3 mph N/A   Partly Cloudy
7:53 AM 8.1 °F -10.7 °F -2.0 °F 64% 29.59 in 10.0 mi NNW 18.4 mph 26.5 mph N/A   Clear
8:53 AM 10.0 °F -5.9 °F -0.9 °F 61% 29.58 in 10.0 mi NW 13.8 mph 25.3 mph N/A   Clear
9:53 AM 12.9 °F -5.7 °F -0.9 °F 54% 29.58 in 10.0 mi NW 21.9 mph 28.8 mph N/A   Partly Cloudy
10:53 AM 14.0 °F -3.0 °F -0.9 °F 52% 29.59 in 10.0 mi NNW 18.4 mph - N/A   Clear
11:53 AM 16.0 °F 1.7 °F -0.9 °F 47% 29.57 in 10.0 mi NW 13.8 mph 24.2 mph N/A   Partly Cloudy
12:53 PM 16.0 °F 0.1 °F -2.0 °F 45% 29.55 in 10.0 mi NNW 17.3 mph - N/A   Partly Cloudy
1:53 PM 15.1 °F 1.8 °F -5.1 °F 41% 29.54 in 10.0 mi NW 11.5 mph 20.7 mph N/A   Partly Cloudy
2:53 PM 14.0 °F -3.0 °F -5.1 °F 43% 29.55 in 10.0 mi NW 18.4 mph - N/A   Clear
3:53 PM 12.0 °F -5.6 °F -6.0 °F 44% 29.59 in 10.0 mi NW 18.4 mph 29.9 mph N/A   Clear
4:53 PM 9.0 °F -8.5 °F -9.9 °F 42% 29.62 in 10.0 mi WNW 16.1 mph 27.6 mph N/A   Clear
5:53 PM 7.0 °F -10.4 °F -11.0 °F 44% 29.66 in 10.0 mi NW 15.0 mph 23.0 mph N/A   Clear
6:53 PM 5.0 °F -18.3 °F -11.0 °F 48% 29.72 in 10.0 mi NW 27.6 mph 36.8 mph N/A   Clear
7:53 PM 3.9 °F -11.3 °F -11.9 °F 48% 29.75 in 10.0 mi NW 10.4 mph - N/A   Clear
8:53 PM 3.0 °F -10.5 °F -11.9 °F 50% 29.76 in 10.0 mi WNW 8.1 mph - N/A   Clear
9:53 PM 3.0 °F -8.0 °F -11.0 °F 52% 29.76 in 10.0 mi West 5.8 mph - N/A   Clear
10:53 PM 1.9 °F -7.6 °F -9.9 °F 58% 29.77 in 10.0 mi WSW 4.6 mph - N/A   Clear
11:53 PM 1.9 °F -5.6 °F -9.0 °F 60% 29.77 in 10.0 mi SW 3.5 mph - N/A   Clear